#timestamp,LO_Frequency,Hit,StdDev 
1656802815.6,286047011.9,Y
1656802835.5,286047001.3,P
1656802855.3,286047003.5,P
1656802875.2,286047003.5,N
1656802895.9,286047004.8,Y
1656802915.7,286047002.1,P
1656802935.6,286046999.8,P
1656802955.4,286047001.2,N
1656802975.3,286047000.7,N
1656802995.1,286046998.7,N
1656802996.0,286046998.7,N
1656803015.8,286047001.0,N
1656803035.7,286047001.8,N
1656803055.5,286047001.5,N
1656803075.3,286047003.4,N
1656803095.2,286047004.2,N
1656803115.0,286047003.0,N
1656803115.9,286047003.0,N
1656803135.8,286047004.7,N
1656803155.6,286047005.5,Y
1656803175.4,286047002.2,P
1656803195.3,286046999.7,N
1656803215.1,286047001.9,N
1656803235.9,286046999.8,N
1656803255.7,286046999.9,N
1656803275.5,286047000.7,N
1656803295.4,286046996.7,Y
1656803315.2,286046995.5,P
1656803335.0,286046995.0,N
1656803335.9,286046995.0,N
1656803355.8,286046998.0,N
1656803375.6,286046997.0,N
1656803395.4,286047000.8,N
1656803415.3,286047000.3,N
1656803435.1,286047000.5,N
1656803455.9,286047000.3,N
1656803475.7,286046998.7,N
1656803495.5,286047002.8,N
1656803515.4,286047001.6,N
1656803535.2,286047002.3,N
1656803555.0,286046995.0,N
1656803555.9,286046995.0,N
1656803575.8,286046996.3,N
1656803595.6,286046994.1,N
1656803615.5,286046993.6,N
1656803635.3,286046994.4,N
1656803655.1,286046993.8,N
1656803675.9,286046994.0,N
1656803695.7,286046997.7,N
1656803715.5,286046997.0,N
1656803735.4,286046996.1,N
1656803755.2,286046993.4,N
1656803775.1,286046996.3,N
1656803776.0,286046996.3,N
1656803795.8,286046994.3,N
1656803815.6,286046991.9,N
1656803835.5,286046991.8,N
1656803855.3,286046993.9,N
1656803875.1,286046995.1,N
1656803895.9,286046997.2,N
1656803915.7,286046998.5,N
1656803935.5,286046999.0,N
1656803955.4,286047000.9,N
1656803975.2,286046998.3,N
1656803995.1,286046998.8,N
1656803996.0,286046998.8,N
1656804015.8,286046997.7,N
1656804035.6,286046995.3,N
1656804055.5,286046997.7,N
1656804075.3,286046999.6,N
1656804095.1,286046996.8,N
1656804115.9,286047001.2,N
1656804135.7,286046998.7,N
1656804155.6,286047002.2,N
1656804175.4,286047003.8,N
1656804195.2,286047005.8,N
1656804215.1,286047006.8,N
1656804216.0,286047006.8,N
1656804235.8,286047007.3,N
1656804255.6,286047006.9,N
1656804275.5,286047005.2,N
1656804295.3,286047005.8,N
1656804315.2,286047003.0,N
1656804335.9,286047005.1,N
1656804355.7,286047005.0,N
1656804375.6,286047009.1,N
1656804395.4,286047010.7,N
1656804415.2,286047009.3,N
1656804435.1,286047007.7,N
1656804436.0,286047007.7,N
1656804455.8,286047008.6,N
1656804475.7,286047009.2,N
1656804495.5,286047005.7,N
1656804515.3,286047007.0,N
1656804535.2,286047003.7,N
1656804555.0,286047005.8,N
1656804555.9,286047005.8,N
1656804575.7,286047007.0,N
1656804595.6,286047005.2,N
1656804615.4,286047007.1,N
1656804635.3,286047008.0,N
1656804655.1,286047010.7,Y
1656804656.0,286047010.7,P
1656804675.8,286047001.4,N
1656804695.7,286047001.4,N
1656804715.5,286047004.1,N
1656804735.3,286047003.7,N
1656804755.2,286047002.9,N
1656804775.0,286047005.4,N
1656804775.9,286047005.4,N
1656804795.8,286047003.7,N
1656804815.6,286047004.6,N
1656804835.4,286047005.5,N
1656804855.3,286047011.9,Y
1656804875.1,286047004.4,P
1656804895.8,286047002.7,P
1656804915.7,286046995.7,P
1656804935.5,286046995.6,N
1656804955.4,286046993.9,N
1656804975.2,286046995.6,N
1656805025.1,286046999.2,E
1656805035.9,286046999.2,N
1656805055.7,286046999.4,P
1656805075.6,286046998.8,P
1656805095.4,286046999.1,Y
1656805115.2,286046998.1,P
1656805135.1,286046998.2,P
1656805136.0,286046998.2,P
1656805155.8,286046998.3,Y
1656805175.7,286046999.3,P
1656805195.5,286046997.2,P
1656805215.3,286046995.5,P
1656805235.2,286046993.7,Y
1656805255.0,286046995.3,P
1656805255.9,286046995.3,P
1656805275.7,286046996.4,P
1656805295.6,286046992.8,Y
1656805315.4,286046994.0,P
1656805335.3,286046994.8,P
1656805355.1,286046992.4,P
1656805375.8,286046993.0,Y
1656805395.7,286046997.6,P
1656805415.5,286046996.1,N
1656805435.4,286046993.9,P
1656805455.2,286046992.0,Y
1656805475.0,286046996.7,P
1656805475.9,286046996.7,P
1656805495.8,286046995.3,P
1656805515.6,286046995.7,Y
1656805535.5,286046999.3,P
1656805555.3,286046998.7,N
1656805575.1,286046996.7,N
1656805595.9,286046995.3,Y
1656805615.7,286046997.0,P
1656805635.5,286046997.6,P
1656805655.4,286046995.5,P
1656805675.2,286046993.4,Y
1656805695.1,286046997.8,P
1656805696.0,286046997.8,P
1656805715.8,286046995.0,P
1656805735.6,286046995.8,Y
1656805755.5,286046996.5,P
1656805775.3,286046997.2,P
1656805795.2,286046995.5,P
1656805815.9,286046995.7,Y
1656805835.7,286046996.9,P
1656805855.6,286046996.9,P
1656805875.4,286046997.8,P
1656805895.2,286046996.2,Y
1656805915.1,286046997.2,P
1656805916.0,286046997.2,P
1656805935.8,286046996.9,P
1656805955.7,286046995.2,Y
1656805975.5,286046999.4,P
1656805995.3,286046999.2,N
1656806015.2,286046997.0,N
1656806035.0,286046998.0,N
1656806035.9,286046998.0,N
1656806055.8,286046995.3,Y
1656806075.6,286046997.6,P
1656806095.4,286046997.6,P
1656806115.3,286046997.6,P
1656806135.1,286046995.1,Y
1656806155.8,286046997.1,P
1656806175.7,286046995.6,P
1656806195.5,286046996.4,P
1656806215.4,286046994.5,Y
1656806235.2,286046997.8,P
1656806255.0,286046997.1,P
1656806255.9,286046997.1,P
1656806275.8,286046997.8,Y
1656806295.6,286046998.7,P
1656806315.5,286046999.0,N
1656806335.3,286046996.5,P
1656806355.1,286046998.7,N
1656806375.9,286046998.9,N
1656806395.7,286046997.0,Y
